Location: San Giovanni
(40.7333°N, 14.9333°E)
Time: 09:53:42
(UTC+00:00)

Daily predictions for brighter satellites

Satellite Brightness Start Highest point End
(mag) Time Altitude Azimuth Time Altitude Azimuth Time Altitude Azimuth
Cosmos 1606 3.0 18:42:18 10° N 18:45:59 47° E 18:49:40 10° SSE
Cosmos 2221 2.5 18:47:20 10° N 18:51:41 82° E 18:56:01 10° S
Cosmos 2151 3.8 18:49:00 10° SSE 18:52:43 30° E 18:56:28 10° NNE
SJ-6B 2.7 18:49:57 10° SSE 18:53:39 89° ENE 18:57:24 10° NNW
Cosmos 158 Rocket 4.1 18:50:39 10° S 18:55:36 52° ESE 19:00:44 10° NNE
ISS -3.4 18:52:42 10° NW 18:56:03 59° NNE 18:59:15 11° ESE
Nadezhda 4 Rocket 4.1 18:50:54 10° S 18:56:54 58° E 19:03:00 10° NNE
Cosmos 2084 4.4 18:54:05 10° SSE 18:57:17 23° ESE 19:00:32 10° ENE
Cosmos 1980 Rocket 2.3 18:53:46 10° NNW 18:59:26 87° WSW 19:05:05 10° SSE
ERS-2 2.6 18:58:34 10° NNE 19:02:01 39° E 19:05:25 10° S
Cosmos 2369 4.4 19:01:29 10° NNW 19:06:59 55° WSW 19:12:27 10° S
Helios 1A Rocket 3.2 19:03:13 10° S 19:07:14 69° WSW 19:11:19 10° NNW
GEOS 3 Rocket 4.5 19:04:19 10° NNE 19:09:22 54° NW 19:14:20 10° SW
Cosmos 371 Rocket 3.3 19:06:07 10° NNW 19:10:58 79° ENE 19:15:46 10° SSE
Cosmos 2322 Rocket 3.4 19:07:19 10° N 19:12:02 27° NE 19:16:06 13° ESE
USA 276 3.0 19:15:41 10° NW 19:18:42 40° NNE 19:20:56 16° E
Cosmos 1633 3.8 19:23:56 10° SSW 19:27:23 43° W 19:30:51 10° N
BREEZE-M DEB (TANK) 3.3 19:26:58 10° WSW 19:30:09 73° NNW 19:40:29 10° ENE
Cosmos 1680 Rocket 3.7 19:27:47 10° S 19:32:52 50° ESE 19:37:56 10° NNE
Cosmos 2112 Rocket 4.4 19:28:24 10° S 19:33:22 43° ESE 19:38:20 10° NNE
Resurs 01 Rocket 1.6 19:31:16 15° SSE 19:34:56 77° ENE 19:39:25 10° N
Terra 3.7 19:40:07 14° E 19:41:51 16° ENE 19:44:44 10° NNE
SL-16 R/B 2.4 19:37:21 10° NNW 19:42:59 59° ENE 19:46:27 23° SE
Cosmos 1151 Rocket 3.8 19:39:17 10° N 19:43:18 34° ENE 19:44:56 26° ESE
Meteor 2-3 Rocket 3.7 19:39:28 10° S 19:45:07 86° E 19:50:54 10° N
SPOT 3 Rocket 3.5 19:41:43 18° SSE 19:45:38 77° ENE 19:50:53 10° N
NOSS 2-1 (E) 3.0 19:43:22 10° SSW 19:46:39 46° ESE 19:49:49 10° NE
Cosmos 332 Rocket 3.9 19:44:38 10° NNW 19:49:32 75° WSW 19:52:56 20° S
CZ-2C R/B 3.7 19:47:05 10° NNE 19:51:32 59° E 19:54:30 20° S
Cosmos 1766 Rocket 3.8 19:50:48 26° SSE 19:52:56 50° E 19:57:11 10° NNE
Cosmos 1933 3.4 19:50:22 10° N 19:54:25 77° W 19:56:51 23° S
Cosmos 1271 Rocket 2.7 19:51:42 10° N 19:55:43 89° E 19:57:43 29° S
Gbstr 26 Del rocket 2.7 19:52:56 10° NW 19:56:41 74° NE 19:58:12 35° ESE
Cosmos 1328 Rocket 4.3 19:52:46 10° N 19:56:54 37° ENE 19:58:06 31° ESE
SPOT 5 3.7 19:57:34 25° E 19:58:43 29° ENE 20:02:32 10° N
IGS 5A 4.1 19:56:07 16° S 19:59:13 52° W 20:03:17 10° NNW
ARIANE 5 R/B 3.3 19:58:58 30° ESE 20:00:22 38° ENE 20:04:29 10° N
Cosmos 1862 3.9 20:04:11 36° E 20:04:25 36° E 20:08:06 10° NNE
Ariane Rocket 4.3 20:00:12 10° SSW 20:04:52 36° W 20:09:32 10° NNW
JB-3 4.2 20:01:14 10° NNE 20:05:20 76° E 20:07:17 30° S
Landsat 7 4.3 20:02:50 17° S 20:06:19 56° W 20:11:01 10° NNW
Cosmos 1782 2.7 20:06:21 10° N 20:10:23 88° WSW 20:11:44 40° S
Meteor 2-21 4.5 20:10:21 26° SSE 20:13:51 62° E 20:19:55 10° NNE
Cosmos 1624 Rocket 4.3 20:09:16 10° N 20:14:22 53° ENE 20:16:05 37° ESE
Cosmos 220 Rocket 4.0 20:13:09 10° NNW 20:17:31 73° ENE 20:18:36 49° SE
ATLAS 3B R/B 4.0 20:15:39 10° NW 20:22:01 35° WSW 20:27:19 15° S
Cosmos 2360 Rocket 2.4 20:16:31 10° NNW 20:22:02 55° ENE 20:23:55 38° ESE
Atlas Centaur 2 3.8 20:27:16 10° SW 20:27:39 11° SW 20:27:39 11° SW
USA 267 4.3 20:23:50 10° ENE 20:27:32 25° E 20:27:32 25° E
NOSS 2-1 (C) 4.2 20:27:45 10° WSW 20:30:56 39° NW 20:34:04 10° NNE
ISS -1.4 20:30:26 10° W 20:32:13 16° WSW 20:32:13 16° WSW
Cosmos 1500 Rocket 4.4 20:34:48 35° ENE 20:34:48 35° ENE 20:38:18 10° NNE
COSMOS 2455 2.9 20:34:50 43° SSE 20:36:16 52° ESE 20:42:06 10° NE
Cosmos 1833 4.1 20:33:10 21° SSW 20:37:09 85° ESE 20:42:57 10° NNE
Cosmos 1812 2.6 20:36:34 10° N 20:40:26 78° W 20:40:31 78° WSW
SPOT 1/Viking Rocket 4.5 20:38:27 24° SSW 20:41:08 43° W 20:46:06 10° NNW
ERS-1 Rocket 2.8 20:40:26 55° SSE 20:41:34 86° ENE 20:46:37 10° NNW
GP-B 4.1 20:37:40 10° NNW 20:41:52 43° W 20:44:01 25° SW
Meteor 1-27 Rocket 4.3 20:37:06 10° N 20:42:28 41° ENE 20:43:21 38° E
Cosmos 2333 Rocket 2.9 20:37:50 10° N 20:43:08 40° ENE 20:44:24 35° E
Meteor 2-16 Rocket 4.4 20:42:27 45° SSE 20:44:16 68° E 20:50:19 10° NNE
BREEZE-M DEB (TANK) 4.5 20:40:28 10° WNW 20:44:47 67° SSW 20:49:45 34° SE
Cosmos 1452 Rocket 4.4 20:40:29 10° N 20:45:14 34° ENE 20:45:57 32° E
SL-27 R/B 3.4 20:44:41 42° WSW 20:45:19 47° WNW 20:48:50 10° N
Cosmos 2322 4.3 20:44:56 10° N 20:50:23 43° ENE 20:51:30 39° E
Cosmos 1408 Rocket 3.6 20:50:55 65° SW 20:51:25 74° W 20:55:46 10° N
H-2A R/B 4.4 20:47:39 10° NNE 20:50:38 38° ENE 20:50:38 38° ENE
Cosmos 1743 Rocket 3.8 20:55:46 56° ENE 20:55:46 56° ENE 20:59:37 10° NNE
Cosmos 2056 Rocket 3.7 20:49:57 10° NNW 20:55:14 67° WSW 20:56:16 53° SSW
Cosmos 2237 Rocket 4.4 20:52:30 10° NNE 20:55:28 14° NE 20:57:41 12° ENE
Cosmos 2322 Rocket 2.9 20:50:56 10° NW 20:56:16 45° WSW 20:57:54 35° SSW
Spot 2 Rocket 4.5 21:03:04 32° SW 21:04:36 40° W 21:09:24 10° NNW
Meteor 1-10 Rocket 4.2 21:00:45 10° NNW 21:06:18 77° W 21:07:16 60° SSW
Cosmos 2219 Rocket 2.3 21:08:30 10° NNW 21:14:01 57° ENE 21:14:26 55° E
BREEZE M DEB (TANK) 4.4 21:11:49 10° W 21:16:12 77° N 21:50:25 10° E
Terra 2.1 21:19:00 56° WSW 21:19:07 56° W 21:23:48 10° NNW
Cosmos 1515 Rocket 4.3 21:16:28 10° NNW 21:20:37 46° W 21:20:37 46° W
IRIDIUM 114 4.4 21:16:12 10° N 21:21:09 67° ENE 21:21:09 67° ENE
Cosmos 2266 Rocket 4.1 21:19:57 50° SSW 21:21:37 72° W 21:27:51 10° N
Cosmos 489 Rocket 4.4 21:22:01 65° ESE 21:22:19 66° ESE 21:28:37 10° NNE
Cosmos 2285 Rocket 3.9 21:19:18 10° NNW 21:25:36 67° ENE 21:26:17 62° ESE
SL-16 R/B 4.1 21:22:42 10° WNW 21:26:31 19° W 21:28:20 16° WSW
Cosmos 468 4.5 21:29:46 76° NNE 21:29:46 76° NNE 21:34:36 10° NNE
Cosmos 2315 Rocket 3.9 21:23:52 10° N 21:30:15 82° E 21:30:56 72° SSE
IRIDIUM 103 4.3 21:25:20 10° N 21:30:18 78° NE 21:30:18 78° NE
Cosmos 494 Rocket 4.3 21:32:48 56° NE 21:32:48 56° NE 21:36:57 10° NNE
ATLAS 5 CENTAUR R/B 2.9 21:26:36 10° NNW 21:32:04 48° NE 21:33:05 44° E
Cosmos 2333 4.2 21:27:38 10° NNW 21:33:13 70° WSW 21:33:17 70° WSW
Cosmos 2228 Rocket 3.7 21:31:49 10° N 21:35:16 54° NNW 21:35:16 54° NNW
SPOT 5 4.4 21:36:47 23° W 21:36:48 23° W 21:40:20 10° NW
COSMOS 2428 2.6 21:35:54 10° NNW 21:41:31 77° NE 21:41:31 77° NE
NOSS 3-1 (C) 4.1 21:39:54 10° NW 21:47:39 71° WSW 21:49:23 57° S
Cosmos 1048 Rocket 4.3 21:48:39 61° WNW 21:48:39 61° WNW 21:53:38 10° NNE
ALOS 2 4.1 21:59:22 30° NNE 21:59:22 30° NNE 22:02:06 10° N
USA 229 DEB 3.8 21:56:04 10° NW 22:03:32 86° WSW 22:04:27 72° SSE
USA 229 3.8 21:56:10 10° NW 22:03:38 87° SW 22:04:33 72° SSE
Cosmos 2360 Rocket 4.0 22:01:33 10° NW 22:05:34 20° W 22:05:41 20° WSW
USA 267 3.3 22:06:11 10° NE 22:12:43 77° NW 22:14:48 47° WSW
Nadezhda 1 Rocket 4.4 22:07:07 10° N 22:13:14 50° ENE 22:13:14 50° ENE
Cosmos 1980 4.1 22:12:25 10° NNW 22:17:31 56° NE 22:17:31 56° NE
NOSS 0 Rocket 3.9 22:12:58 10° NNW 22:18:53 81° N 22:18:53 81° N
Lacrosse 5 2.9 22:25:49 40° NNE 22:25:49 40° NNE 22:29:07 10° NE
NOSS 3-1 (A) 4.1 22:16:22 10° NW 22:24:07 69° WSW 22:25:00 65° SSW
Cosmos 2333 Rocket 3.6 22:22:25 10° NW 22:26:23 28° W 22:26:23 28° W
Cosmos 2297 Rocket 2.6 22:32:07 57° NNE 22:32:07 57° NNE 22:36:37 10° NNE
BREEZE-M R/B 4.1 22:31:57 34° N 22:31:57 34° N 22:36:10 10° ENE
Cosmos 2237 Rocket 2.5 22:34:42 10° NNW 22:39:29 63° N 22:39:29 63° N
Cosmos 2227 Rocket 2.7 22:44:30 53° NE 22:44:30 53° NE 22:48:50 10° NNE
USA 234 3.7 22:42:59 44° E 22:44:50 58° NE 22:51:14 10° NW
Cosmos 2263 Rocket 4.3 22:57:34 15° E 22:57:34 15° E 22:59:32 10° ENE
Cosmos 2219 Rocket 4.1 22:53:37 10° NW 22:56:08 18° W 22:56:08 18° W
SL-16 R/B 2.8 23:04:27 10° NNW 23:09:38 50° NE 23:09:38 50° NE
ATLAS 5 CENTAUR R/B 3.8 23:11:24 10° NW 23:14:35 27° W 23:14:35 27° W
Meteor 1-11 Rocket 4.1 23:25:58 60° N 23:25:58 60° N 23:30:28 10° N
Cosmos 1709 Rocket 4.2 23:30:39 65° WNW 23:30:39 65° WNW 23:36:41 10° N
ASTEX 1 4.5 23:35:16 40° NE 23:35:16 40° NE 23:39:00 10° N
Cosmos 2219 4.4 23:42:23 33° WNW 23:42:43 33° WNW 23:47:54 10° N
CZ-2D R/B 3.6 23:41:22 10° NE 23:45:32 27° E 23:45:32 27° E
